Tiempo cada hora Barra dos Coqueiros

Hoy, 13 Mayo, Jueves

Tiempo Temperatura Precipitaciones Viento Presión Humedad
00:00 +25°C° 0.8 mm 3 mps 760 mmHg 95%
01:00 +25°C° 0.8 mm 3 mps 760 mmHg 95%
02:00 +25°C° 1.1 mm 3 mps 760 mmHg 95%
03:00 +25°C° 1.1 mm 3 mps 760 mmHg 95%
04:00 +25°C° 1.1 mm 3 mps 759 mmHg 95%
05:00 +25°C° 0.8 mm 2 mps 760 mmHg 95%
06:00 +25°C° 0.8 mm 2 mps 760 mmHg 95%
07:00 +24°C° 0.8 mm 2 mps 760 mmHg 95%
08:00 +26°C° 0.4 mm 2 mps 760 mmHg 90%
09:00 +27°C° 0.4 mm 3 mps 761 mmHg 86%
10:00 +28°C° 0.4 mm 3 mps 761 mmHg 81%
11:00 +29°C° 0.5 mm 3 mps 761 mmHg 78%
12:00 +30°C° 0.5 mm 3 mps 760 mmHg 75%
13:00 +30°C° 0.5 mm 3 mps 760 mmHg 71%
14:00 +30°C° 0.2 mm 3 mps 759 mmHg 70%
15:00 +30°C° 0.2 mm 4 mps 759 mmHg 68%
16:00 +30°C° 0.2 mm 4 mps 759 mmHg 67%
17:00 +29°C° 0.5 mm 4 mps 759 mmHg 74%
18:00 +27°C° 0.5 mm 3 mps 760 mmHg 82%
19:00 +26°C° 0.5 mm 3 mps 760 mmHg 90%
20:00 +26°C° 0.3 mm 2 mps 760 mmHg 90%
21:00 +25°C° 0.3 mm 2 mps 761 mmHg 90%
22:00 +25°C° 0.3 mm 2 mps 761 mmHg 91%
23:00 +25°C° 0.6 mm 2 mps 761 mmHg 92%

Mañana, 14 Mayo, Viernes

Tiempo Temperatura Precipitaciones Viento Presión Humedad
00:00 +25°C° 0.6 mm 1 mps 761 mmHg 92%
01:00 +25°C° 0.6 mm 1 mps 760 mmHg 93%
02:00 +25°C° 0.6 mm 1 mps 760 mmHg 93%
03:00 +25°C° 0.6 mm 2 mps 760 mmHg 93%
04:00 +25°C° 0.6 mm 2 mps 760 mmHg 94%
05:00 +25°C° 0.6 mm 2 mps 760 mmHg 93%
06:00 +25°C° 0.6 mm 2 mps 760 mmHg 93%
07:00 +25°C° 0.6 mm 2 mps 760 mmHg 92%
08:00 +26°C° 0.7 mm 2 mps 760 mmHg 87%
09:00 +27°C° 0.7 mm 3 mps 761 mmHg 83%
10:00 +29°C° 0.7 mm 3 mps 761 mmHg 78%
11:00 +29°C° 0.6 mm 4 mps 761 mmHg 74%
12:00 +30°C° 0.6 mm 4 mps 761 mmHg 70%
13:00 +30°C° 0.6 mm 4 mps 760 mmHg 66%
14:00 +30°C° 0.3 mm 5 mps 760 mmHg 69%
15:00 +29°C° 0.3 mm 5 mps 759 mmHg 71%
16:00 +29°C° 0.3 mm 5 mps 759 mmHg 74%
17:00 +28°C° 0.8 mm 4 mps 759 mmHg 79%
18:00 +27°C° 0.8 mm 4 mps 760 mmHg 84%
19:00 +25°C° 0.8 mm 4 mps 760 mmHg 90%
20:00 +25°C° 0.9 mm 4 mps 760 mmHg 90%
21:00 +25°C° 0.9 mm 4 mps 761 mmHg 91%
22:00 +25°C° 0.9 mm 4 mps 761 mmHg 91%
23:00 +25°C° 0.8 mm 4 mps 761 mmHg 91%

Pasado mañana, 15 Mayo, Sábado

Tiempo Temperatura Precipitaciones Viento Presión Humedad
00:00 +25°C° 0.8 mm 3 mps 761 mmHg 90%
01:00 +25°C° 0.8 mm 3 mps 760 mmHg 89%
02:00 +25°C° 0.5 mm 4 mps 760 mmHg 89%
03:00 +25°C° 0.5 mm 4 mps 760 mmHg 89%
04:00 +25°C° 0.5 mm 4 mps 760 mmHg 90%
05:00 +25°C° 0.3 mm 4 mps 760 mmHg 90%
06:00 +25°C° 0.3 mm 4 mps 760 mmHg 90%
07:00 +25°C° 0.3 mm 4 mps 761 mmHg 91%
08:00 +26°C° 0.5 mm 4 mps 761 mmHg 87%
09:00 +27°C° 0.5 mm 4 mps 761 mmHg 83%
10:00 +28°C° 0.5 mm 5 mps 761 mmHg 78%
11:00 +29°C° 0.9 mm 5 mps 761 mmHg 76%
12:00 +29°C° 0.9 mm 5 mps 761 mmHg 74%
13:00 +29°C° 0.9 mm 5 mps 760 mmHg 72%
14:00 +29°C° 0.5 mm 5 mps 760 mmHg 74%
15:00 +29°C° 0.5 mm 5 mps 760 mmHg 77%
16:00 +28°C° 0.5 mm 5 mps 759 mmHg 79%
17:00 +27°C° 0.6 mm 4 mps 760 mmHg 83%
18:00 +26°C° 0.6 mm 4 mps 760 mmHg 87%
19:00 +25°C° 0.6 mm 4 mps 760 mmHg 91%
20:00 +25°C° 0.9 mm 4 mps 761 mmHg 91%
21:00 +25°C° 0.9 mm 3 mps 761 mmHg 92%
22:00 +25°C° 0.9 mm 3 mps 761 mmHg 92%
23:00 +25°C° 1 mm 3 mps 761 mmHg 92%

16 Mayo, Domingo

Tiempo Temperatura Precipitaciones Viento Presión Humedad
00:00 +25°C° 1 mm 3 mps 761 mmHg 92%
01:00 +25°C° 1 mm 3 mps 761 mmHg 92%
02:00 +25°C° 0.6 mm 3 mps 761 mmHg 92%
03:00 +24°C° 0.6 mm 3 mps 760 mmHg 92%
04:00 +24°C° 0.6 mm 3 mps 760 mmHg 91%
05:00 +24°C° 0.2 mm 3 mps 760 mmHg 91%
06:00 +24°C° 0.2 mm 3 mps 760 mmHg 90%
07:00 +24°C° 0.2 mm 3 mps 761 mmHg 89%
08:00 +26°C° 0.2 mm 3 mps 761 mmHg 82%
09:00 +28°C° 0.2 mm 3 mps 761 mmHg 75%
10:00 +29°C° 0.2 mm 4 mps 761 mmHg 69%
11:00 +29°C° 0.8 mm 4 mps 761 mmHg 73%
12:00 +28°C° 0.8 mm 4 mps 761 mmHg 78%
13:00 +28°C° 0.8 mm 4 mps 761 mmHg 83%
14:00 +28°C° 0.6 mm 4 mps 760 mmHg 82%
15:00 +28°C° 0.6 mm 4 mps 760 mmHg 81%
16:00 +28°C° 0.6 mm 4 mps 759 mmHg 81%
17:00 +27°C° 0.1 mm 4 mps 760 mmHg 83%
18:00 +26°C° 0.1 mm 4 mps 760 mmHg 84%
19:00 +25°C° 0.1 mm 4 mps 760 mmHg 86%
20:00 +25°C° 0.2 mm 3 mps 761 mmHg 87%
21:00 +25°C° 0.2 mm 3 mps 761 mmHg 87%
22:00 +24°C° 0.2 mm 3 mps 761 mmHg 88%
23:00 +24°C° 0.2 mm 3 mps 761 mmHg 89%

17 Mayo, Lunes

Tiempo Temperatura Precipitaciones Viento Presión Humedad
00:00 +24°C° 0.2 mm 3 mps 761 mmHg 89%
01:00 +24°C° 0.2 mm 3 mps 761 mmHg 90%
02:00 +24°C° 0 mm 3 mps 761 mmHg 90%
03:00 +24°C° 0 mm 3 mps 760 mmHg 90%
04:00 +24°C° 0 mm 3 mps 760 mmHg 90%
05:00 +24°C° 0 mm 3 mps 760 mmHg 90%
06:00 +24°C° 0 mm 3 mps 761 mmHg 90%
07:00 +24°C° 0 mm 3 mps 761 mmHg 91%
08:00 +26°C° 0.1 mm 3 mps 761 mmHg 82%
09:00 +27°C° 0.1 mm 3 mps 761 mmHg 73%
10:00 +29°C° 0.1 mm 4 mps 762 mmHg 64%
11:00 +30°C° 0 mm 4 mps 761 mmHg 61%
12:00 +30°C° 0 mm 4 mps 761 mmHg 59%
13:00 +32°C° 0 mm 4 mps 761 mmHg 56%
14:00 +32°C° 0 mm 4 mps 760 mmHg 57%
15:00 +30°C° 0 mm 4 mps 760 mmHg 59%
16:00 +30°C° 0 mm 5 mps 759 mmHg 60%
17:00 +28°C° 0 mm 4 mps 760 mmHg 67%
18:00 +27°C° 0 mm 4 mps 760 mmHg 73%
19:00 +25°C° 0 mm 3 mps 760 mmHg 80%
20:00 +25°C° 0 mm 3 mps 761 mmHg 80%
21:00 +25°C° 0 mm 3 mps 761 mmHg 81%
22:00 +25°C° 0 mm 2 mps 761 mmHg 82%
23:00 +24°C° 0 mm 2 mps 761 mmHg 83%

18 Mayo, Martes

Tiempo Temperatura Precipitaciones Viento Presión Humedad
00:00 +24°C° 0 mm 2 mps 761 mmHg 84%
01:00 +24°C° 0 mm 2 mps 761 mmHg 85%
02:00 +24°C° 0 mm 2 mps 761 mmHg 86%
03:00 +23°C° 0 mm 2 mps 760 mmHg 87%
04:00 +23°C° 0 mm 2 mps 760 mmHg 88%
05:00 +23°C° 0.1 mm 2 mps 760 mmHg 88%
06:00 +23°C° 0.1 mm 2 mps 760 mmHg 88%
07:00 +24°C° 0.1 mm 1 mps 760 mmHg 87%
08:00 +25°C° 0.1 mm 2 mps 761 mmHg 82%
09:00 +27°C° 0.1 mm 2 mps 761 mmHg 76%
10:00 +29°C° 0.1 mm 2 mps 762 mmHg 70%
11:00 +30°C° 0.1 mm 3 mps 761 mmHg 69%
12:00 +30°C° 0.1 mm 3 mps 761 mmHg 67%
13:00 +32°C° 0.1 mm 4 mps 760 mmHg 65%
14:00 +30°C° 0.1 mm 4 mps 760 mmHg 67%
15:00 +30°C° 0.1 mm 4 mps 760 mmHg 70%
16:00 +29°C° 0.1 mm 4 mps 759 mmHg 72%
17:00 +28°C° 0 mm 3 mps 760 mmHg 78%
18:00 +27°C° 0 mm 3 mps 760 mmHg 83%
19:00 +26°C° 0 mm 3 mps 760 mmHg 89%
20:00 +26°C° 0 mm 3 mps 761 mmHg 90%
21:00 +26°C° 0 mm 2 mps 761 mmHg 90%
22:00 +25°C° 0 mm 2 mps 761 mmHg 91%
23:00 +25°C° 0 mm 2 mps 761 mmHg 90%
Mostrar más

Necesitamos Su Consentimiento

Meteoprog y nuestros Proveedores de Servicios pueden almacenar y acceder a sus datos personales como cookies, identificadores de dispositivo u otras tecnologías similares de su dispositivo y procesar dichos datos para personalizar contenido y anuncios, además de ofrecer funciones de redes sociales y analizar el tráfico.

  • Almacenar y/o acceder a información en su dispositivo

    Se puede almacenar o acceder a cookies, identificadores de dispositivo u otra información de su dispositivo para los fines anteriormente indicados.

  • Anuncios y contenido personalizados, medición de anuncios y contenido, percepciones del público, y desarrollo de productos

    Los anuncios y el contenido pueden personalizarse en base a su perfil. Se pueden añadir más datos para personalizar mejor los anuncios y contenidos. Se puede medir el rendimiento de los anuncios y contenidos. Se puede obtener la percepción sobre el público que ha visto los anuncios y contenidos. Dichos datos pueden usarse para desarrollar o mejorar la experiencia del usuario, sistemas y software.

Al hacer clic en ‘Estoy De Acuerdo’ usted permitirá el uso de las cookies, identificadores de dispositivo, balizas web u otras tecnologías similares indicadas. Su configuración puede cambiarse desde el navegador de su dispositivo.

Para ciertos fines, los intereses legítimos pueden ser considerados por encima del consentimiento. Puede leer más sobre ello en nuestra Política de Privacidad y Cookies.